Time,TemperatureF,DewpointF,PressureIn,WindDirection,WindDirectionDegrees,WindSpeedMPH,WindSpeedGustMPH,Humidity,HourlyPrecipIn,Conditions,Clouds,dailyrainin,SoftwareType,DateUTC
2013-03-16 00:00:00,50.3,40.5,30.18,SSW,205,0.0,2.0,69,0.00,,,0.00,Weather View 32 v70,2013-03-16 04:00:00,
2013-03-16 00:10:00,49.5,40.1,30.17,SW,236,0.0,1.0,70,0.00,,,0.00,Weather View 32 v70,2013-03-16 04:10:00,
2013-03-16 00:20:00,49.2,39.8,30.17,WNW,283,0.0,1.0,70,0.00,,,0.00,Weather View 32 v70,2013-03-16 04:20:00,
2013-03-16 00:30:00,48.8,39.4,30.17,WNW,284,0.0,1.0,70,0.00,,,0.00,Weather View 32 v70,2013-03-16 04:30:00,
2013-03-16 00:40:00,48.7,39.3,30.17,WNW,284,0.0,1.0,70,0.00,,,0.00,Weather View 32 v70,2013-03-16 04:40:00,
2013-03-16 00:50:00,48.0,39.0,30.17,WNW,284,0.0,1.0,71,0.00,,,0.00,Weather View 32 v70,2013-03-16 04:50:00,
2013-03-16 01:00:00,47.8,39.2,30.16,WNW,284,0.0,1.0,72,0.00,,,0.00,Weather View 32 v70,2013-03-16 05:00:00,
2013-03-16 01:10:00,47.8,39.2,30.16,WNW,284,0.0,0.0,72,0.00,,,0.00,Weather View 32 v70,2013-03-16 05:10:00,
2013-03-16 01:20:00,47.8,40.2,30.16,WNW,284,0.0,0.0,75,0.00,,,0.00,Weather View 32 v70,2013-03-16 05:20:00,
2013-03-16 01:22:00,47.8,40.2,30.16,WNW,284,0.0,0.0,75,0.00,,,0.00,Weather View 32 v70,2013-03-16 05:22:00,
2013-03-16 01:29:00,48.0,39.7,30.16,WNW,284,0.0,0.0,73,0.00,,,0.00,Weather View 32 v70,2013-03-16 05:29:00,
2013-03-16 01:39:00,47.6,40.1,30.16,WNW,284,0.0,0.0,75,0.00,,,0.00,Weather View 32 v70,2013-03-16 05:39:00,
2013-03-16 02:00:00,47.7,41.2,30.15,WNW,284,0.0,0.0,78,0.00,,,0.00,Weather View 32 v70,2013-03-16 06:00:00,
2013-03-16 02:10:00,47.9,41.4,30.15,WNW,284,0.0,0.0,78,0.00,,,0.00,Weather View 32 v70,2013-03-16 06:10:00,
2013-03-16 02:20:00,48.1,41.6,30.15,WNW,284,0.0,0.0,78,0.00,,,0.00,Weather View 32 v70,2013-03-16 06:20:00,
2013-03-16 02:23:00,48.1,41.6,30.15,WNW,284,0.0,0.0,78,0.00,,,0.00,Weather View 32 v70,2013-03-16 06:23:00,
2013-03-16 02:30:00,47.4,41.2,30.14,WNW,284,0.0,0.0,79,0.00,,,0.00,Weather View 32 v70,2013-03-16 06:30:00,
2013-03-16 02:40:00,47.1,41.6,30.14,WNW,284,0.0,0.0,81,0.00,,,0.00,Weather View 32 v70,2013-03-16 06:40:00,
2013-03-16 02:50:00,46.7,41.2,30.14,WNW,284,0.0,0.0,81,0.00,,,0.00,Weather View 32 v70,2013-03-16 06:50:00,
2013-03-16 03:00:00,46.8,41.6,30.14,WNW,284,0.0,0.0,82,0.00,,,0.00,Weather View 32 v70,2013-03-16 07:00:00,
2013-03-16 03:10:00,47.0,42.1,30.13,WNW,284,0.0,0.0,83,0.00,,,0.00,Weather View 32 v70,2013-03-16 07:10:00,
2013-03-16 03:20:00,47.1,42.8,30.13,WNW,284,0.0,0.0,85,0.00,,,0.00,Weather View 32 v70,2013-03-16 07:20:00,
2013-03-16 03:24:00,47.1,42.8,30.13,WNW,284,0.0,0.0,85,0.00,,,0.00,Weather View 32 v70,2013-03-16 07:24:00,
2013-03-16 03:30:00,47.4,42.8,30.13,WNW,284,0.0,0.0,84,0.00,,,0.00,Weather View 32 v70,2013-03-16 07:30:00,
2013-03-16 03:40:00,47.8,43.2,30.13,WNW,284,0.0,0.0,84,0.00,,,0.00,Weather View 32 v70,2013-03-16 07:40:00,
2013-03-16 03:50:00,47.7,43.1,30.13,WNW,284,0.0,0.0,84,0.00,,,0.00,Weather View 32 v70,2013-03-16 07:50:00,
2013-03-16 04:00:00,47.6,43.3,30.13,WNW,284,0.0,0.0,85,0.00,,,0.00,Weather View 32 v70,2013-03-16 08:00:00,
2013-03-16 04:10:00,47.3,43.0,30.12,WNW,284,0.0,0.0,85,0.00,,,0.00,Weather View 32 v70,2013-03-16 08:10:00,
2013-03-16 04:20:00,47.3,43.3,30.12,WNW,284,0.0,0.0,86,0.00,,,0.00,Weather View 32 v70,2013-03-16 08:20:00,
2013-03-16 04:30:00,47.0,43.0,30.12,WNW,284,0.0,0.0,86,0.00,,,0.00,Weather View 32 v70,2013-03-16 08:30:00,
2013-03-16 04:40:00,46.8,42.8,30.12,WNW,284,0.0,0.0,86,0.00,,,0.00,Weather View 32 v70,2013-03-16 08:40:00,
2013-03-16 04:50:00,45.9,41.9,30.12,WNW,284,0.0,0.0,86,0.00,,,0.00,Weather View 32 v70,2013-03-16 08:50:00,
2013-03-16 05:00:00,45.2,41.6,30.12,WNW,284,0.0,0.0,87,0.00,,,0.00,Weather View 32 v70,2013-03-16 09:00:00,
2013-03-16 05:10:00,44.6,41.3,30.11,WNW,284,0.0,0.0,88,0.00,,,0.00,Weather View 32 v70,2013-03-16 09:10:00,
2013-03-16 05:19:00,44.3,41.0,30.12,WNW,284,0.0,0.0,88,0.00,,,0.00,Weather View 32 v70,2013-03-16 09:19:00,
2013-03-16 05:25:00,44.3,41.0,30.12,WNW,284,0.0,0.0,88,0.00,,,0.00,Weather View 32 v70,2013-03-16 09:25:00,
2013-03-16 05:29:00,44.3,41.5,30.11,WNW,284,0.0,0.0,90,0.00,,,0.00,Weather View 32 v70,2013-03-16 09:29:00,
2013-03-16 05:40:00,44.6,41.8,30.11,WNW,284,0.0,0.0,90,0.00,,,0.00,Weather View 32 v70,2013-03-16 09:40:00,
2013-03-16 05:50:00,44.1,41.4,30.11,WNW,284,0.0,0.0,90,0.00,,,0.00,Weather View 32 v70,2013-03-16 09:50:00,
2013-03-16 06:00:00,43.7,41.0,30.12,WNW,284,0.0,0.0,90,0.00,,,0.00,Weather View 32 v70,2013-03-16 10:00:00,
2013-03-16 06:10:00,43.1,40.4,30.11,WNW,284,0.0,0.0,90,0.00,,,0.00,Weather View 32 v70,2013-03-16 10:10:00,
2013-03-16 06:20:00,43.0,40.5,30.11,WNW,284,0.0,0.0,91,0.00,,,0.00,Weather View 32 v70,2013-03-16 10:20:00,
2013-03-16 06:25:00,43.0,40.5,30.11,WNW,284,0.0,0.0,91,0.00,,,0.00,Weather View 32 v70,2013-03-16 10:25:00,
2013-03-16 06:30:00,43.3,40.8,30.11,WNW,284,0.0,0.0,91,0.00,,,0.00,Weather View 32 v70,2013-03-16 10:30:00,
2013-03-16 06:40:00,43.6,41.4,30.12,WNW,284,0.0,0.0,92,0.00,,,0.00,Weather View 32 v70,2013-03-16 10:40:00,
2013-03-16 06:50:00,43.5,41.0,30.12,WNW,284,0.0,0.0,91,0.00,,,0.00,Weather View 32 v70,2013-03-16 10:50:00,
2013-03-16 07:00:00,43.8,41.9,30.12,WNW,284,0.0,0.0,93,0.00,,,0.00,Weather View 32 v70,2013-03-16 11:00:00,
2013-03-16 07:10:00,43.2,41.0,30.12,WNW,284,0.0,0.0,92,0.00,,,0.00,Weather View 32 v70,2013-03-16 11:10:00,
2013-03-16 07:20:00,43.1,40.9,30.13,WNW,284,0.0,0.0,92,0.00,,,0.00,Weather View 32 v70,2013-03-16 11:20:00,
2013-03-16 07:26:00,43.1,40.9,30.13,WNW,284,0.0,0.0,92,0.00,,,0.00,Weather View 32 v70,2013-03-16 11:26:00,
2013-03-16 07:30:00,42.6,40.4,30.13,WNW,284,0.0,0.0,92,0.00,,,0.00,Weather View 32 v70,2013-03-16 11:30:00,
2013-03-16 07:40:00,43.0,41.1,30.13,WNW,284,0.0,0.0,93,0.00,,,0.00,Weather View 32 v70,2013-03-16 11:40:00,
2013-03-16 07:50:00,43.2,41.3,30.13,WNW,284,0.0,0.0,93,0.00,,,0.00,Weather View 32 v70,2013-03-16 11:50:00,
2013-03-16 08:00:00,42.3,40.1,30.14,WNW,284,0.0,0.0,92,0.00,,,0.00,Weather View 32 v70,2013-03-16 12:00:00,
2013-03-16 08:09:00,43.1,40.9,30.14,WNW,284,0.0,0.0,92,0.00,,,0.00,Weather View 32 v70,2013-03-16 12:09:00,
2013-03-16 08:20:00,44.0,41.8,30.14,WNW,284,0.0,0.0,92,0.00,,,0.00,Weather View 32 v70,2013-03-16 12:20:00,
2013-03-16 08:30:00,45.9,44.0,30.14,WNW,284,0.0,0.0,93,0.00,,,0.00,Weather View 32 v70,2013-03-16 12:30:00,
2013-03-16 08:40:00,48.1,45.6,30.15,WNW,284,0.0,0.0,91,0.00,,,0.00,Weather View 32 v70,2013-03-16 12:40:00,
2013-03-16 08:50:00,49.8,47.0,30.15,WNW,284,0.0,0.0,90,0.00,,,0.00,Weather View 32 v70,2013-03-16 12:50:00,
2013-03-16 09:00:00,50.9,47.8,30.15,WNW,284,0.0,0.0,89,0.00,,,0.00,Weather View 32 v70,2013-03-16 13:00:00,
2013-03-16 09:10:00,52.4,48.9,30.15,WNW,300,0.0,1.0,88,0.00,,,0.00,Weather View 32 v70,2013-03-16 13:10:00,
2013-03-16 09:20:00,53.9,50.1,30.15,West,263,0.0,2.0,87,0.00,,,0.00,Weather View 32 v70,2013-03-16 13:20:00,
2013-03-16 09:27:00,53.9,50.1,30.15,West,263,0.0,2.0,87,0.00,,,0.00,Weather View 32 v70,2013-03-16 13:27:00,
2013-03-16 09:30:00,55.2,50.4,30.16,NW,311,0.0,3.0,84,0.00,,,0.00,Weather View 32 v70,2013-03-16 13:30:00,
2013-03-16 09:40:00,56.6,51.2,30.16,WSW,240,0.0,4.0,82,0.00,,,0.00,Weather View 32 v70,2013-03-16 13:40:00,
2013-03-16 09:50:00,58.3,51.8,30.16,West,276,1.0,6.0,79,0.00,,,0.00,Weather View 32 v70,2013-03-16 13:50:00,
2013-03-16 10:00:00,58.9,51.3,30.16,NNE,32,0.0,6.0,76,0.00,,,0.00,Weather View 32 v70,2013-03-16 14:00:00,
2013-03-16 10:10:00,59.7,51.7,30.16,North,9,3.0,6.0,75,0.00,,,0.00,Weather View 32 v70,2013-03-16 14:10:00,
2013-03-16 10:20:00,60.8,52.4,30.15,WNW,296,0.0,6.0,74,0.00,,,0.00,Weather View 32 v70,2013-03-16 14:20:00,
2013-03-16 10:27:00,60.8,52.4,30.15,WNW,296,0.0,6.0,74,0.00,,,0.00,Weather View 32 v70,2013-03-16 14:27:00,
2013-03-16 10:40:00,64.3,53.5,30.15,WNW,302,0.0,6.0,68,0.00,,,0.00,Weather View 32 v70,2013-03-16 14:40:00,
2013-03-16 10:50:00,66.2,50.0,30.15,NNE,26,1.0,6.0,56,0.00,,,0.00,Weather View 32 v70,2013-03-16 14:50:00,
2013-03-16 11:00:00,66.9,50.2,30.15,West,265,3.0,8.0,55,0.00,,,0.00,Weather View 32 v70,2013-03-16 15:00:00,
2013-03-16 11:10:00,67.7,49.4,30.15,NNW,344,5.0,8.0,52,0.00,,,0.00,Weather View 32 v70,2013-03-16 15:10:00,
2013-03-16 11:20:00,67.9,47.4,30.15,NNE,17,1.0,9.0,48,0.00,,,0.00,Weather View 32 v70,2013-03-16 15:20:00,
2013-03-16 11:29:00,67.9,47.4,30.15,NNE,17,1.0,9.0,48,0.00,,,0.00,Weather View 32 v70,2013-03-16 15:29:00,
2013-03-16 11:40:00,69.3,47.6,30.14,NW,315,2.0,9.0,46,0.00,,,0.00,Weather View 32 v70,2013-03-16 15:40:00,
2013-03-16 11:50:00,69.6,47.8,30.14,NNE,13,4.0,9.0,46,0.00,,,0.00,Weather View 32 v70,2013-03-16 15:50:00,
2013-03-16 12:00:00,69.9,48.7,30.13,West,261,1.0,11.0,47,0.00,,,0.00,Weather View 32 v70,2013-03-16 16:00:00,
2013-03-16 12:10:00,70.4,49.7,30.13,West,267,4.0,11.0,48,0.00,,,0.00,Weather View 32 v70,2013-03-16 16:10:00,
2013-03-16 12:20:00,70.7,49.4,30.13,NNE,15,0.0,11.0,47,0.00,,,0.00,Weather View 32 v70,2013-03-16 16:20:00,
2013-03-16 12:29:00,70.7,49.4,30.13,NNE,15,0.0,11.0,47,0.00,,,0.00,Weather View 32 v70,2013-03-16 16:29:00,
2013-03-16 12:30:00,71.4,49.5,30.12,North,0,10.0,11.0,46,0.00,,,0.00,Weather View 32 v70,2013-03-16 16:30:00,
2013-03-16 12:40:00,71.8,48.7,30.12,West,272,3.0,11.0,44,0.00,,,0.00,Weather View 32 v70,2013-03-16 16:40:00,
2013-03-16 12:50:00,72.9,48.4,30.11,ESE,107,1.0,11.0,42,0.00,,,0.00,Weather View 32 v70,2013-03-16 16:50:00,
2013-03-16 13:00:00,73.8,45.8,30.11,NW,315,6.0,11.0,37,0.00,,,0.00,Weather View 32 v70,2013-03-16 17:00:00,
2013-03-16 13:10:00,74.0,46.7,30.11,SSW,206,0.0,11.0,38,0.00,,,0.00,Weather View 32 v70,2013-03-16 17:10:00,
2013-03-16 13:20:00,74.2,46.9,30.10,WSW,252,5.0,11.0,38,0.00,,,0.00,Weather View 32 v70,2013-03-16 17:20:00,
2013-03-16 13:30:00,74.3,47.7,30.09,WNW,300,3.0,11.0,39,0.00,,,0.00,Weather View 32 v70,2013-03-16 17:30:00,
2013-03-16 13:40:00,74.8,48.1,30.09,West,275,5.0,11.0,39,0.00,,,0.00,Weather View 32 v70,2013-03-16 17:40:00,
2013-03-16 13:50:00,75.0,47.6,30.09,West,259,5.0,11.0,38,0.00,,,0.00,Weather View 32 v70,2013-03-16 17:50:00,
2013-03-16 14:00:00,74.6,47.9,30.08,NE,45,4.0,10.0,39,0.00,,,0.00,Weather View 32 v70,2013-03-16 18:00:00,
2013-03-16 14:10:00,75.2,46.3,30.08,WNW,294,2.0,10.0,36,0.00,,,0.00,Weather View 32 v70,2013-03-16 18:10:00,
2013-03-16 14:20:00,75.7,46.0,30.08,NW,315,2.0,10.0,35,0.00,,,0.00,Weather View 32 v70,2013-03-16 18:20:00,
2013-03-16 14:30:00,76.4,45.1,30.07,NNE,13,8.0,10.0,33,0.00,,,0.00,Weather View 32 v70,2013-03-16 18:30:00,
2013-03-16 14:31:00,76.4,45.1,30.07,NNE,13,8.0,10.0,33,0.00,,,0.00,Weather View 32 v70,2013-03-16 18:31:00,
2013-03-16 14:40:00,76.8,46.2,30.06,NE,46,0.0,10.0,34,0.00,,,0.00,Weather View 32 v70,2013-03-16 18:40:00,
2013-03-16 14:50:00,76.9,46.3,30.06,NW,317,4.0,11.0,34,0.00,,,0.00,Weather View 32 v70,2013-03-16 18:50:00,
2013-03-16 15:00:00,77.0,44.0,30.05,NW,313,5.0,11.0,31,0.00,,,0.00,Weather View 32 v70,2013-03-16 19:00:00,
2013-03-16 15:10:00,77.5,44.4,30.05,WNW,296,3.0,11.0,31,0.00,,,0.00,Weather View 32 v70,2013-03-16 19:10:00,
2013-03-16 15:20:00,77.6,44.5,30.04,WNW,290,2.0,11.0,31,0.00,,,0.00,Weather View 32 v70,2013-03-16 19:20:00,
2013-03-16 15:30:00,77.3,45.9,30.04,NNE,30,8.0,12.0,33,0.00,,,0.00,Weather View 32 v70,2013-03-16 19:30:00,
2013-03-16 15:31:00,77.3,45.9,30.04,NNE,30,8.0,12.0,33,0.00,,,0.00,Weather View 32 v70,2013-03-16 19:31:00,
2013-03-16 15:40:00,77.7,44.6,30.04,NW,311,0.0,12.0,31,0.00,,,0.00,Weather View 32 v70,2013-03-16 19:40:00,
2013-03-16 15:50:00,77.8,43.8,30.03,North,351,4.0,12.0,30,0.00,,,0.00,Weather View 32 v70,2013-03-16 19:50:00,
2013-03-16 16:00:00,78.2,45.0,30.03,North,9,6.0,12.0,31,0.00,,,0.00,Weather View 32 v70,2013-03-16 20:00:00,
2013-03-16 16:10:00,78.6,43.6,30.02,West,277,3.0,12.0,29,0.00,,,0.00,Weather View 32 v70,2013-03-16 20:10:00,
2013-03-16 16:20:00,78.4,45.2,30.02,NE,49,1.0,12.0,31,0.00,,,0.00,Weather View 32 v70,2013-03-16 20:20:00,
2013-03-16 16:30:00,78.6,45.3,30.02,West,271,5.0,12.0,31,0.00,,,0.00,Weather View 32 v70,2013-03-16 20:30:00,
2013-03-16 16:32:00,78.6,45.3,30.02,West,271,5.0,12.0,31,0.00,,,0.00,Weather View 32 v70,2013-03-16 20:32:00,
2013-03-16 16:40:00,78.4,46.0,30.02,NW,304,4.0,11.0,32,0.00,,,0.00,Weather View 32 v70,2013-03-16 20:40:00,
2013-03-16 16:50:00,78.3,45.9,30.02,East,79,1.0,11.0,32,0.00,,,0.00,Weather View 32 v70,2013-03-16 20:50:00,
2013-03-16 17:00:00,78.3,45.1,30.02,NNW,327,2.0,9.0,31,0.00,,,0.00,Weather View 32 v70,2013-03-16 21:00:00,
2013-03-16 17:10:00,77.9,44.7,30.01,SSW,192,0.0,9.0,31,0.00,,,0.00,Weather View 32 v70,2013-03-16 21:10:00,
2013-03-16 17:20:00,78.0,46.5,30.01,North,11,4.0,9.0,33,0.00,,,0.00,Weather View 32 v70,2013-03-16 21:20:00,
2013-03-16 17:30:00,77.9,47.2,30.01,WNW,300,2.0,12.0,34,0.00,,,0.00,Weather View 32 v70,2013-03-16 21:30:00,
2013-03-16 17:32:00,77.9,47.2,30.01,WNW,300,2.0,12.0,34,0.00,,,0.00,Weather View 32 v70,2013-03-16 21:32:00,
2013-03-16 17:40:00,77.3,47.4,30.01,WNW,288,3.0,12.0,35,0.00,,,0.00,Weather View 32 v70,2013-03-16 21:40:00,
2013-03-16 17:50:00,76.8,46.2,30.01,NNW,331,2.0,12.0,34,0.00,,,0.00,Weather View 32 v70,2013-03-16 21:50:00,
2013-03-16 18:00:00,76.3,47.3,30.01,North,350,4.0,12.0,36,0.00,,,0.00,Weather View 32 v70,2013-03-16 22:00:00,
2013-03-16 18:10:00,76.0,47.0,30.01,NNW,338,8.0,12.0,36,0.00,,,0.00,Weather View 32 v70,2013-03-16 22:10:00,
2013-03-16 18:20:00,75.9,46.2,30.01,NW,309,2.0,12.0,35,0.00,,,0.00,Weather View 32 v70,2013-03-16 22:20:00,
2013-03-16 18:30:00,75.7,46.8,30.02,North,11,6.0,12.0,36,0.00,,,0.00,Weather View 32 v70,2013-03-16 22:30:00,
2013-03-16 18:33:00,75.7,46.8,30.02,North,11,6.0,12.0,36,0.00,,,0.00,Weather View 32 v70,2013-03-16 22:33:00,
2013-03-16 18:40:00,75.1,47.0,30.02,WSW,254,4.0,12.0,37,0.00,,,0.00,Weather View 32 v70,2013-03-16 22:40:00,
2013-03-16 18:50:00,74.5,47.2,30.02,SW,235,3.0,12.0,38,0.00,,,0.00,Weather View 32 v70,2013-03-16 22:50:00,
2013-03-16 19:00:00,74.0,46.7,30.02,NW,306,2.0,9.0,38,0.00,,,0.00,Weather View 32 v70,2013-03-16 23:00:00,
2013-03-16 19:10:00,73.5,46.3,30.02,NNW,328,3.0,8.0,38,0.00,,,0.00,Weather View 32 v70,2013-03-16 23:10:00,
2013-03-16 19:20:00,72.7,46.9,30.02,NNW,327,2.0,8.0,40,0.00,,,0.00,Weather View 32 v70,2013-03-16 23:20:00,
2013-03-16 19:30:00,71.8,46.8,30.03,SW,215,0.0,8.0,41,0.00,,,0.00,Weather View 32 v70,2013-03-16 23:30:00,
2013-03-16 19:33:00,71.8,46.8,30.03,SW,215,0.0,8.0,41,0.00,,,0.00,Weather View 32 v70,2013-03-16 23:33:00,
2013-03-16 19:40:00,71.1,46.8,30.03,NNW,333,0.0,8.0,42,0.00,,,0.00,Weather View 32 v70,2013-03-16 23:40:00,
2013-03-16 19:50:00,70.2,46.6,30.03,West,263,0.0,8.0,43,0.00,,,0.00,Weather View 32 v70,2013-03-16 23:50:00,
2013-03-16 20:00:00,69.3,47.0,30.03,NW,308,0.0,8.0,45,0.00,,,0.00,Weather View 32 v70,2013-03-17 00:00:00,
2013-03-16 20:10:00,68.1,47.1,30.04,NW,326,0.0,6.0,47,0.00,,,0.00,Weather View 32 v70,2013-03-17 00:10:00,
2013-03-16 20:20:00,67.4,47.0,30.04,NW,326,0.0,5.0,48,0.00,,,0.00,Weather View 32 v70,2013-03-17 00:20:00,
2013-03-16 20:30:00,66.5,47.2,30.04,WNW,290,0.0,3.0,50,0.00,,,0.00,Weather View 32 v70,2013-03-17 00:30:00,
2013-03-16 20:34:00,66.5,47.2,30.04,WNW,290,0.0,3.0,50,0.00,,,0.00,Weather View 32 v70,2013-03-17 00:34:00,
2013-03-16 20:40:00,66.4,46.6,30.05,WNW,291,0.0,3.0,49,0.00,,,0.00,Weather View 32 v70,2013-03-17 00:40:00,
2013-03-16 20:50:00,65.6,45.9,30.05,WSW,238,0.0,3.0,49,0.00,,,0.00,Weather View 32 v70,2013-03-17 00:50:00,
2013-03-16 21:00:00,64.7,46.1,30.06,WSW,239,0.0,3.0,51,0.00,,,0.00,Weather View 32 v70,2013-03-17 01:00:00,
2013-03-16 21:10:00,63.8,46.8,30.06,WSW,239,0.0,3.0,54,0.00,,,0.00,Weather View 32 v70,2013-03-17 01:10:00,
2013-03-16 21:20:00,62.9,46.0,30.06,WSW,239,0.0,3.0,54,0.00,,,0.00,Weather View 32 v70,2013-03-17 01:20:00,
2013-03-16 21:30:00,62.2,45.8,30.07,WSW,239,0.0,1.0,55,0.00,,,0.00,Weather View 32 v70,2013-03-17 01:30:00,
2013-03-16 21:35:00,62.2,45.8,30.07,WSW,239,0.0,1.0,55,0.00,,,0.00,Weather View 32 v70,2013-03-17 01:35:00,
2013-03-16 21:40:00,61.5,45.6,30.07,WSW,239,0.0,1.0,56,0.00,,,0.00,Weather View 32 v70,2013-03-17 01:40:00,
2013-03-16 21:50:00,60.3,45.4,30.07,WSW,239,0.0,1.0,58,0.00,,,0.00,Weather View 32 v70,2013-03-17 01:50:00,
2013-03-16 22:00:00,59.5,45.1,30.07,WSW,239,0.0,1.0,59,0.00,,,0.00,Weather View 32 v70,2013-03-17 02:00:00,
2013-03-16 22:10:00,58.2,45.2,30.07,WSW,239,0.0,1.0,62,0.00,,,0.00,Weather View 32 v70,2013-03-17 02:10:00,
2013-03-16 22:20:00,57.1,45.4,30.08,WSW,239,0.0,1.0,65,0.00,,,0.00,Weather View 32 v70,2013-03-17 02:20:00,
2013-03-16 22:30:00,57.7,45.2,30.08,WSW,239,0.0,1.0,63,0.00,,,0.00,Weather View 32 v70,2013-03-17 02:30:00,
2013-03-16 22:35:00,57.7,45.2,30.08,WSW,239,0.0,1.0,63,0.00,,,0.00,Weather View 32 v70,2013-03-17 02:35:00,
2013-03-16 22:40:00,58.1,45.1,30.08,WSW,245,0.0,1.0,62,0.00,,,0.00,Weather View 32 v70,2013-03-17 02:40:00,
2013-03-16 22:50:00,57.3,45.6,30.09,WSW,246,0.0,1.0,65,0.00,,,0.00,Weather View 32 v70,2013-03-17 02:50:00,
2013-03-16 23:00:00,56.2,45.0,30.09,WSW,246,0.0,2.0,66,0.00,,,0.00,Weather View 32 v70,2013-03-17 03:00:00,
2013-03-16 23:10:00,54.8,45.2,30.08,WSW,246,0.0,2.0,70,0.00,,,0.00,Weather View 32 v70,2013-03-17 03:10:00,
2013-03-16 23:20:00,54.2,45.4,30.09,WSW,246,0.0,2.0,72,0.00,,,0.00,Weather View 32 v70,2013-03-17 03:20:00,
2013-03-16 23:30:00,53.9,45.8,30.09,WSW,246,0.0,2.0,74,0.00,,,0.00,Weather View 32 v70,2013-03-17 03:30:00,
2013-03-16 23:36:00,53.9,45.8,30.09,WSW,246,0.0,2.0,74,0.00,,,0.00,Weather View 32 v70,2013-03-17 03:36:00,
2013-03-16 23:40:00,53.3,45.6,30.09,WSW,246,0.0,2.0,75,0.00,,,0.00,Weather View 32 v70,2013-03-17 03:40:00,
2013-03-16 23:50:00,53.7,46.3,30.09,WSW,246,0.0,2.0,76,0.00,,,0.00,Weather View 32 v70,2013-03-17 03:50:00,